STARLINK-36911, 68008

Orbit data source: Space-Track

STARLINK-36911, 68008 is a payload satellite owned by SpaceX/Seattle (US) in LEO that was launched on Fri, 27 Feb 2026 UTC via an FALCON 9 launch vehicle from the Air Force Eastern Test Range (AFETR). Payload-class satellites include a variety of spacecraft equipped with specific instruments for various scientific and technological missions. These include communications satellites like Starlink; space stations such as the ISS; scientific satellites like the Hubble; Earth observation satellites from companies like Planet Labs, Umbra, and HawkEye 360; GPS; miniature CubeSats for education and research; and military/defense satellites.

Loading next visibility...
Identifier
68008, 2026-039Y
Orbit
LEO
Country
Flag of USUS
Related business
Manufacturer
SpaceX/Seattle
Mission
Operational Commercial Communications
Bus & Motor
STARLINK V2MO, Unknown motor
Mass
575 kg wet, ~530 kg dry
Launch date (UTC)
2026-02-27 (2 months ago)
Launch vehicle
FALCON 9
Launch site
Air Force Eastern Test Range (AFETR)
Object type
Payload
Rocket body
Debris
Shape & HBR
Box + 2 Pan, 17.7 m
Radar Cross Section
36.964 m²

Expand to show TLE details & history
Last TLE update: 7 hours ago

TLE from 7 hours ago
0 STARLINK-36911
1 68008U 26039Y   26119.30107303  .00019988  00000-0  73402-3 0  9992
2 68008  42.9977 123.1001 0001902 276.9529  83.1106 15.27573918  9446
Epoch: 2026-04-29T07:13Z
TLE epoch observation values (Epoch: 2026-04-29T07:13:32.709Z)
Latitude
-0.00005°
Longitude
157.44976°
Altitude
482.686 km
Speed
7.626 km/s
True Right ascension
08h 12m 24s
True Declination
0° 00' 00"
Sunlit
Object was in daylight at epoch
Visualization orbit readout
Latitude
Unknown
Longitude
Unknown
Altitude
Unknown
Speed
Unknown
Apparent Right ascension
Unknown
Apparent Declination
Unknown
Sunlit
N/A
Visualization observer readout
Local Sidereal Time
21:51:58
Azimuth
Unknown
Elevation
Unknown
Doppler factor
Unknown
Orbital elements
Apogee altitude
486.318 km
Perigee altitude
483.707 km
Semi-major axis
6,863.15 km
Eccentricity
0.00019
Inclination
42.9977°
RAAN
123.1001°
Arg. of periapsis
276.9529°
True anomaly
83.13224°
Mean anomaly
83.1106°
Eccentric anomaly
83.12142°
Mean motion
3.81731 °/min
Orbital period
94.31 mins
BSTAR
0.00073402
Loading maneuver chart data...
Computing Atmospheric mass density...
Loading historical data...
Loading historical data...
Loading historical data...
Loading historical data...
Loading historical data...
Loading historical data...
Loading historical data...

Documentation

Showing up to 5 results
|